Regional Weather Roundup
Issued by NWS

Home | Current Version | Previous Version | Graphics & Text | Print | Product List | Glossary Off
Versions: 1 2 3 4 5 6 7 8 9 10 11 12 13 14 15 16 17 18 19 20 21 22 23 24 25 26 27 28 29 30 31 32 33 34 35 36 37 38 39 40 41 42 43 44 45 46 47 48 49 50

000
ASUS43 KDMX 010907
RWRIA

WEATHER ROUNDUP FOR IOWA
NATIONAL WEATHER SERVICE DES MOINES IA
300 AM CST SUN FEB 01 2015

NOTE: "FAIR" INDICATES FEW OR NO CLOUDS BELOW 12,000 FEET WITH NO
SIGNIFICANT WEATHER AND/OR OBSTRUCTIONS TO VISIBILITY.

* - THESE STATIONS ARE NOT NWS STATIONS...THUS NOT UNDER NWS
QUALITY CONTROL.  THEY ALSO DO NOT REPORT WEATHER SUCH
AS PRECIPITATION OR FOG.

IAZ001>003-012>014-020>022-031>034-043>046-011000-
   NORTHWEST IOWA

CITY           SKY/WX    TMP DP  RH WIND       PRES   REMARKS
CARROLL *      LGT SNOW  30  30 100 NE16      29.84F VSB 1   WCI  19
CHEROKEE *     LGT SNOW  25  25 100 NE16G28   29.93S WCI  12
DENISON *      LGT SNOW  30  30 100 NE13G20   29.83F VSB 1   WCI  20
LE MARS *      MIX PCPN  25  23  93 NE22G28   29.96S VSB 1   WCI  10
ORANGE CITY *  LGT SNOW  23  19  86 NE14G26   29.96S WCI  11
SHELDON *      LGT SNOW  21  21 100 NE24G32   29.96S WCI   4
SIOUX CITY     LGT SNOW  26  23  88 NE21G29   29.92S FOG     WCI  12
SPENCER        LGT SNOW  23  19  85 NE28G36   29.97S FOG     WCI   6
STORM LAKE *   LGT SNOW  25  23  93 NE26      29.90S VSB 3/4 WCI   9
$$

IAZ055>058-069>071-079>083-090>094-011000-
   SOUTHWEST IOWA

CITY           SKY/WX    TMP DP  RH WIND       PRES   REMARKS
ATLANTIC *     LGT SNOW  32  32 100 NE6       29.81F WCI  26
AUDUBON *      LGT SNOW  30  28  93 NE3       29.84F
CLARINDA *     LGT SNOW  32  32 100 MISG      29.81F
COUNCIL BLFS * LGT SNOW  32  32 100 NE8       29.79F WCI  25
CRESTON *      LGT SNOW  32  32 100 NE8       29.80F WCI  25
HARLAN  *      LGT SNOW  32  32 100 NE8       29.85F WCI  25
LAMONI         LGT SNOW  32  32 100 SE6       29.79F FOG     WCI  26
RED OAK *      LGT SNOW  32  32 100 NE7       29.80F WCI  26
SHENANDOAH *   LGT SNOW  32  32 100 NE7       29.81F WCI  26
$$

IAZ047>049-059>061-072>074-084-011000-
   CENTRAL IOWA

CITY           SKY/WX    TMP DP  RH WIND       PRES   REMARKS
AMES           LGT SNOW  32  31  96 E9        29.86F VSB 1   WCI  24
ANKENY *       LGT SNOW  32  32 100 VRB5G15   29.86F WCI  27
CHARITON *     LGT SNOW  32  32 100 E6        29.82F WCI  26
DES MOINES     LGT SNOW  33  31  92 E7        29.84F FOG     WCI  27
GRINNELL*      LGT SNOW  32  32 100 E7        29.87F VSB 1   WCI  26
KNOXVILLE *    LGT SNOW  32  32 100 E6        29.83F WCI  26
MARSHALLTOWN   LGT SNOW  32  31  96 E14       29.87F VSB 3/4 WCI  22
PELLA *        HVY RAIN  32  32 100 E3        29.87F
PERRY *        LGT SNOW  32  32 100 E7        29.84F WCI  26
$$

IAZ004>006-015-016-023>025-035-036-011000-
   NORTH CENTRAL IOWA

CITY           SKY/WX    TMP DP  RH WIND       PRES   REMARKS
ALGONA *       MIX PCPN  25  25 100 NE21G28   29.95F VSB 3/4 WCI  10
CLARION *      LGT SNOW  27  27 100 NE26      29.91F VSB 3/4 WCI  11
ESTHERVILLE    LGT SNOW  20  18  92 NE32G38   29.98S VSB 1   WCI   1
FORT DODGE *   CLOUDY    27  23  86 CALM      29.90F
MASON CITY     LGT SNOW  25  22  88 NE20      29.98F VSB 3/4 WCI  11
FOREST CITY *  LGT SNOW  27  23  86 NE14G24   29.96F WCI  15
IOWA FALLS *   LGT SNOW  28  27  93 NE10G16   29.90F VSB 1   WCI  19
$$

IAZ007>011-017>019-026>030-037>042-050>054-066-011000-
   NORTHEAST IOWA

CITY           SKY/WX    TMP DP  RH WIND       PRES   REMARKS
CEDAR RAPIDS   SNOW      32  32 100 E14       29.90F VSB 1/2 WCI  22
CHARLES CITY * LGT SNOW  27  27 100 NE22      29.97F VSB 3/4 WCI  12
CLINTON *      CLOUDY    32  30  93 E12       29.99F VSB 1   WCI  23
DECORAH *      LGT SNOW  25  23  93 E13G20    30.01S WCI  13
DUBUQUE        LGT SNOW  28  26  92 E20       29.98F VSB 3/4 WCI  15
MONTICELLO *   LGT SNOW  30  30 100 E15       29.95F VSB 3/4 WCI  19
OELWEIN *      LGT SNOW  27  27 100 E20G29    29.94F WCI  13
WATERLOO       LGT SNOW  28  27  96 E22       29.94F VSB 1   WCI  14
$$

IAZ064-065-067-068-078-011000-
   EAST CENTRAL IOWA

CITY           SKY/WX    TMP DP  RH WIND       PRES   REMARKS
DAVENPORT      SNOW      32  30  92 E12       29.95F VSB 1/2 WCI  23
IOWA CITY      LGT SNOW  32  32 100 E7        29.93F VSB 3/4 WCI  26
MT. PLEASANT * LGT SNOW  32  32 100 SE10      29.90F WCI  24
MUSCATINE *    LGT SNOW  34  32  93 SE8       29.93F WCI  27
QUAD CITIES    LGT SNOW  32  31  96 E9        29.93F VSB 1   WCI  24
$$

IAZ062-063-075>077-085>089-095>099-011000-
   SOUTHEAST IOWA

CITY           SKY/WX    TMP DP  RH WIND       PRES   REMARKS
BURLINGTON     LGT SNOW  33  32  96 SE10      29.90F FOG     WCI  25
FAIRFIELD *    LGT SNOW  32  32 100 SE13      29.87F WCI  22
FORT MADISON * LGT SNOW  32  32 100 SE10      29.90F WCI  24
KEOKUK *       LGT SNOW  34  32  93 SE10      29.88F WCI  26
OSKALOOSA *    LGT SNOW  32  32 100 SE7       29.86F WCI  26
CENTERVILLE *  LGT SNOW  32  32 100 SE6       29.84F WCI  26
OTTUMWA        LGT SNOW  32  32 100 SE12      29.86F FOG     WCI  23
WASHINGTON *   LGT SNOW  34  34 100 SE13      29.88F WCI  25
$$

ABBREVIATIONS USED IN REMARKS
   TC - TEMPERATURES IN CELSIUS
  WCI - WIND CHILL INDEX
   HX - HEAT INDEX
  VSB - VISIBILITY
$$



USA.gov is the U.S. government's official web portal to all federal, state and local government web resources and services.